386  
ASUS42 KRAH 151610  
RWRRAH  
NORTH CAROLINA WEATHER ROUNDUP  
NATIONAL WEATHER SERVICE RALEIGH NC  
1200 PM EDT SUN SEP 15 2019  
 
NOTE: "FAIR" INDICATES FEW OR NO CLOUDS BELOW 12,000 FEET WITH NO  
SIGNIFICANT WEATHER AND/OR S TO VISIBILITY
.  
 
NCZ001-053-055-056-065-067-151700-  
WESTERN NORTH CAROLINA  
 
CITY SKY/WX TMP DP RH WIND PRES REMARKS
 
ASHEVILLE FAIR 77 68 73 NW5 30.26F  
JEFFERSON NOT AVBL  
HICKORY FAIR 79 71 76 N6 30.20F  
WILKESBORO NOT AVBL  
RUTHERFORDTON NOT AVBL  
MOUNT AIRY FAIR 83 70 64 E6 30.23S  
BOONE FAIR 78 54 42 CALM 30.30F  

 
 
NCZ021-022-025-041-071-084-088-151700-  
CENTRAL NORTH CAROLINA  
 
CITY SKY/WX TMP DP RH WIND PRES REMARKS
 
CHARLOTTE PTSUNNY 84 68 58 NE7 30.18S  
GREENSBORO PTSUNNY 80 71 74 N5 30.19S  
WINSTON-SALEM CLOUDY 81 69 67 N7 30.20F  
RALEIGH-DURHAM PTSUNNY 82 68 62 VRB6 30.16F  
FORT BRAGG FAIR 84 70 62 NE5 30.13F  
FAYETTEVILLE FAIR 84 72 67 NE6 30.13F  
BURLINGTON CLOUDY 82 67 60 CALM 30.18S  
ROXBORO NOT AVBL  
HENDERSON NOT AVBL  
LOUISBURG PTSUNNY 81 70 69 CALM 30.18F HAZE  
LAURINBURG FAIR 85 70 60 E7 30.14F  

 
 
NCZ011-015-027-028-043-044-047-080-103-151700-  
NORTHEASTERN NORTH CAROLINA  
 
CITY SKY/WX TMP DP RH WIND PRES REMARKS
 
ROCKY MT-WILSO FAIR 82 72 71 NE6 30.15F  
GREENVILLE NOT AVBL  
ELIZABETH CITY FAIR 83 73 72 NE7 30.14F  
MANTEO NOT AVBL  
CAPE HATTERAS CLOUDY N/A N/A N/A E10 30.12F  

 
 
NCZ078-087-090-091-093-098-101-151700-  
SOUTHEASTERN NORTH CAROLINA  
 
CITY SKY/WX TMP DP RH WIND PRES REMARKS
 
GOLDSBORO NOT AVBL  
KINSTON CLOUDY 81 73 78 NE6 30.14F  
KENANSVILLE NOT AVBL  
NEW BERN FAIR 84 74 71 E5 30.13F  
CHERRY POINT FAIR 86 71 60 NE5 30.12F  
BEAUFORT FAIR 86 75 69 SE8 30.10F HX 95  
JACKSONVILLE FAIR 84 71 65 E6 30.11F  
WILMINGTON FAIR 85 72 65 NE6 30.11F  

 
 
 
 
CLICK HERE TO GO TO PREVIOUS BULLETINS.

The Nexlab NC Page Main Text Page